Gold Coast Seaway Observation History
Time Wind Speed Temp Pressure Rel. Hum Rain
07/12:00pm E 7-10 kts 25.4°c 1014.8 hPa 66% 2.0mm
07/11:30am E 7-9 kts 24.8°c 1015.2 hPa 67% 2.0mm
07/11:00am E 7-9 kts 23.9°c 1015.6 hPa 73% 2.0mm
07/10:30am E 3-4 kts 23.3°c 1015.7 hPa 77% 2.0mm
07/10:00am ENE 5-6 kts 22.3°c 1016.0 hPa 80% 2.0mm
07/09:30am E 5-7 kts 22.1°c 1016.1 hPa 82% 1.8mm
07/09:00am ESE 5-7 kts 21.7°c 1016.1 hPa 84% 2.2mm
07/08:30am ENE 7-8 kts 22.8°c 1015.7 hPa 76% 0.0mm
07/08:00am SE 9-11 kts 23.5°c 1015.5 hPa 73% 0.0mm
07/07:30am SE 9-11 kts 23.3°c 1015.1 hPa 74% 0.0mm
07/07:00am S 5-7 kts 21.6°c 1014.7 hPa 74% 0.0mm
07/06:30am S 6-9 kts 21.6°c 1014.7 hPa 73% 0.0mm
07/06:00am S 7-9 kts 21.7°c 1014.4 hPa 71% 0.0mm
07/05:30am S 8-12 kts 22.1°c 1014.0 hPa 72% 0.0mm
07/05:00am SSE 8-12 kts 22.3°c 1013.5 hPa 71% 0.0mm
07/04:30am S 5-9 kts 21.8°c 1013.0 hPa 73% 0.0mm
07/04:00am CALM 0 kts 21.9°c 1012.8 hPa 72% 0.0mm
07/03:30am CALM 0 kts 22.2°c 1012.8 hPa 71% 0.0mm
07/03:00am SW 3-5 kts 22.1°c 1012.7 hPa 72% 0.0mm
07/02:30am SSW 3-5 kts 22.1°c 1012.7 hPa 72% 0.0mm
07/02:00am SSW 5-7 kts 22.0°c 1012.6 hPa 73% 0.0mm
07/01:30am CALM 0 kts 22.4°c 1012.9 hPa 70% 0.0mm
07/01:00am NNW 3-5 kts 22.8°c 1013.0 hPa 69% 0.0mm
07/12:30am SW 3-6 kts 22.6°c 1012.9 hPa 69% 0.0mm
07/12:00am SSW 5-7 kts 22.7°c 1013.0 hPa 67% 0.0mm
Time Wind Speed Temp Pressure Rel. Hum Rain
06/11:30pm S 7-11 kts 22.7°c 1012.9 hPa 68% 0.0mm
06/11:00pm S 4-6 kts 22.9°c 1013.0 hPa 69% 0.0mm
06/10:30pm SSE 8-12 kts 23.1°c 1012.9 hPa 69% 0.0mm
06/10:00pm SE 13-16 kts 23.4°c 1012.9 hPa 70% 0.0mm
06/09:30pm SE 9-14 kts 23.5°c 1012.8 hPa 71% 0.0mm
06/09:00pm SSE 14-18 kts 23.5°c 1012.7 hPa 71% 0.0mm
06/08:30pm S 7-10 kts 23.3°c 1012.4 hPa 66% 0.0mm
06/08:00pm SSE 13-17 kts 23.7°c 1011.9 hPa 64% 0.0mm
06/07:30pm SE 15-17 kts 23.8°c 1011.6 hPa 64% 0.0mm
06/07:00pm SE 13-18 kts 23.8°c 1011.1 hPa 65% 0.0mm
06/06:30pm SE 14-17 kts 23.9°c 1010.8 hPa 65% 0.0mm
06/06:00pm SE 14-18 kts 24.0°c 1010.5 hPa 65% 0.0mm
06/05:30pm SE 15-18 kts 24.2°c 1010.0 hPa 64% 0.0mm
06/05:00pm SE 14-18 kts 24.3°c 1009.8 hPa 63% 0.0mm
06/04:30pm SE 15-18 kts 25.1°c 1009.6 hPa 61% 0.0mm
06/04:00pm SE 15-19 kts 24.9°c 1009.4 hPa 62% 0.0mm
06/03:30pm SE 15-20 kts 24.8°c 1009.3 hPa 60% 0.0mm
06/03:00pm SE 17-20 kts 24.9°c 1009.3 hPa 64% 0.0mm
06/02:30pm SE 17-21 kts 26.2°c 1009.4 hPa 63% 0.0mm
06/02:00pm SE 16-19 kts 25.5°c 1009.4 hPa 63% 0.0mm
06/01:30pm SE 17-20 kts 26.5°c 1009.3 hPa 58% 0.0mm
06/01:00pm SE 15-21 kts 26.9°c 1009.4 hPa 60% 0.0mm
06/12:30pm SE 14-16 kts 26.4°c 1009.5 hPa 60% 0.0mm
06/12:00pm SE 15-18 kts 25.6°c 1009.8 hPa 61% 0.0mm
06/11:30am SSE 16-20 kts 26.9°c 1010.0 hPa 57% 0.0mm
06/11:00am SSE 13-19 kts 26.5°c 1010.1 hPa 58% 0.0mm
06/10:30am SSE 14-19 kts 26.9°c 1010.2 hPa 57% 0.0mm
06/10:00am SSE 13-18 kts 26.3°c 1010.1 hPa 60% 0.0mm
06/09:30am SSE 14-18 kts 25.8°c 1010.1 hPa 59% 0.0mm
06/09:00am SSE 13-18 kts 25.3°c 1009.8 hPa 62% 0.0mm
06/08:30am S 13-18 kts 24.3°c 1009.7 hPa 67% 0.0mm
06/08:00am SSE 14-19 kts 23.3°c 1009.4 hPa 72% 0.0mm
06/07:30am S 12-18 kts 23.0°c 1009.1 hPa 71% 0.0mm
06/07:00am S 10-17 kts 23.2°c 1008.6 hPa 70% 0.0mm
06/06:30am S 9-15 kts 22.5°c 1008.1 hPa 75% 0.0mm
06/06:00am SSW 7-10 kts 21.7°c 1007.6 hPa 76% 0.0mm
06/05:30am SSW 8-13 kts 22.0°c 1007.3 hPa 75% 0.0mm
06/05:00am S 9-13 kts 22.1°c 1006.9 hPa 74% 0.0mm
06/04:30am S 11-16 kts 22.3°c 1006.6 hPa 74% 0.0mm
06/04:00am S 10-16 kts 22.7°c 1006.5 hPa 74% 0.0mm
06/03:30am S 10-16 kts 22.7°c 1006.4 hPa 76% 0.0mm
06/03:00am S 8-12 kts 22.5°c 1006.5 hPa 77% 0.0mm
06/02:30am S 10-15 kts 22.5°c 1006.5 hPa 76% 0.0mm
06/02:00am S 11-17 kts 22.9°c 1006.6 hPa 74% 0.0mm
06/01:30am S 13-21 kts 23.6°c 1006.6 hPa 75% 0.0mm
06/01:00am S 8-12 kts 23.2°c 1006.7 hPa 74% 0.0mm
06/12:30am S 6-11 kts 22.7°c 1006.8 hPa 70% 0.0mm
06/12:00am SSW 6-9 kts 23.0°c 1007.0 hPa 69% 0.0mm
Time Wind Speed Temp Pressure Rel. Hum Rain
05/11:30pm S 7-10 kts 23.2°c 1007.1 hPa 68% 0.0mm
05/11:00pm S 9-12 kts 23.5°c 1007.1 hPa 67% 0.0mm
05/10:30pm S 9-14 kts 23.8°c 1007.1 hPa 68% 0.0mm
05/10:00pm S 11-15 kts 24.2°c 1007.1 hPa 69% 0.0mm
05/09:30pm SSE 8-11 kts 24.6°c 1007.0 hPa 77% 0.0mm
05/09:00pm SE 5-6 kts 24.6°c 1006.8 hPa 76% 0.0mm
05/08:30pm E 4-5 kts 24.3°c 1006.7 hPa 75% 0.0mm
05/08:00pm NE 5-7 kts 24.4°c 1006.2 hPa 73% 0.0mm
05/07:30pm NNE 5-7 kts 24.7°c 1005.7 hPa 72% 0.0mm
05/07:00pm NNE 6-9 kts 24.9°c 1005.3 hPa 71% 0.0mm
05/06:30pm NNE 7-9 kts 25.0°c 1005.0 hPa 69% 0.0mm
05/06:00pm NE 10-13 kts 25.4°c 1004.7 hPa 68% 0.0mm
05/05:30pm NE 11-13 kts 26.1°c 1004.4 hPa 68% 0.0mm
05/05:00pm NE 11-13 kts 26.4°c 1004.2 hPa 67% 0.0mm
05/04:30pm NE 12-14 kts 26.6°c 1003.9 hPa 66% 0.0mm
05/04:00pm NE 12-14 kts 27.1°c 1003.8 hPa 66% 0.0mm
05/03:30pm NE 13-14 kts 27.0°c 1003.7 hPa 65% 0.0mm
05/03:00pm NNE 12-16 kts 28.2°c 1003.7 hPa 61% 0.0mm
05/02:30pm NNE 12-16 kts 28.2°c 1004.0 hPa 60% 0.0mm
05/02:00pm NE 14-19 kts 28.2°c 1004.3 hPa 62% 0.0mm
05/01:30pm N 8-19 kts 29.3°c 1004.6 hPa 52% 0.0mm
05/01:00pm NNE 3-6 kts 28.7°c 1005.0 hPa 43% 0.0mm
05/12:30pm NNW 6-9 kts 28.7°c 1005.4 hPa 47% 0.0mm
05/12:00pm NW 5-8 kts 28.3°c 1006.0 hPa 49% 0.0mm
05/11:30am NNW 6-9 kts 28.0°c 1006.5 hPa 50% 0.0mm
05/11:00am NW 6-9 kts 27.1°c 1007.1 hPa 54% 0.0mm
05/10:30am NW 8-11 kts 26.5°c 1007.7 hPa 50% 0.0mm
05/10:00am WNW 8-13 kts 25.9°c 1008.0 hPa 52% 0.0mm
05/09:30am NW 6-8 kts 25.7°c 1008.4 hPa 58% 0.0mm
05/09:00am WNW 6-9 kts 24.5°c 1008.6 hPa 55% 0.2mm
05/08:30am NW 5-8 kts 24.0°c 1008.6 hPa 58% 0.2mm
05/08:00am W 6-8 kts 23.3°c 1008.6 hPa 62% 0.2mm
05/07:30am W 4-6 kts 21.9°c 1008.4 hPa 69% 0.2mm
05/07:00am WSW 4-5 kts 20.6°c 1008.2 hPa 74% 0.2mm
05/06:30am SW 5-6 kts 19.4°c 1008.1 hPa 79% 0.2mm
05/06:00am WSW 5 kts 18.6°c 1008.2 hPa 81% 0.2mm
05/05:30am WSW 5-6 kts 18.5°c 1008.0 hPa 80% 0.2mm
05/05:00am SW 6-9 kts 18.7°c 1008.0 hPa 80% 0.2mm
05/04:30am WSW 5-6 kts 18.7°c 1007.9 hPa 79% 0.2mm
05/04:00am WSW 4-5 kts 18.8°c 1007.9 hPa 79% 0.2mm
05/03:30am WSW 4-5 kts 18.9°c 1008.0 hPa 78% 0.2mm
05/03:00am WSW 5-6 kts 19.0°c 1008.3 hPa 79% 0.2mm
05/02:30am WSW 5-6 kts 19.1°c 1008.6 hPa 80% 0.2mm
05/02:00am WSW 5-7 kts 19.1°c 1008.9 hPa 81% 0.2mm
05/01:30am SW 6-7 kts 19.1°c 1009.3 hPa 80% 0.2mm
05/01:00am SW 6-8 kts 19.2°c 1009.6 hPa 80% 0.2mm
05/12:30am SW 6-7 kts 19.4°c 1009.9 hPa 80% 0.2mm
05/12:00am SW 6-7 kts 19.7°c 1010.1 hPa 79% 0.2mm